TimePDT,TemperatureF,Dew PointF,Humidity,Sea Level PressureIn,VisibilityMPH,Wind Direction,Wind SpeedMPH,Gust SpeedMPH,PrecipitationIn,Events,Conditions,WindDirDegrees,DateUTC
12:53 AM,35.1,15.1,44,29.99,10.0,NNE,8.1,-,N/A,,Clear,20,2013-10-29 07:53:00
1:53 AM,34.0,15.1,46,29.98,10.0,NNE,9.2,-,N/A,,Clear,20,2013-10-29 08:53:00
2:53 AM,30.0,16.0,56,30.00,10.0,NNE,8.1,-,N/A,,Clear,30,2013-10-29 09:53:00
3:53 AM,27.0,16.0,63,30.00,10.0,NNE,4.6,-,N/A,,Clear,30,2013-10-29 10:53:00
4:53 AM,24.1,16.0,71,30.00,10.0,North,6.9,-,N/A,,Clear,10,2013-10-29 11:53:00
5:53 AM,24.1,17.1,75,30.02,10.0,NNW,3.5,-,N/A,,Clear,330,2013-10-29 12:53:00
6:53 AM,24.1,17.1,75,30.02,10.0,North,3.5,-,N/A,,Clear,10,2013-10-29 13:53:00
7:53 AM,27.0,17.1,66,30.03,10.0,North,4.6,-,N/A,,Clear,10,2013-10-29 14:53:00
8:53 AM,37.0,19.9,50,30.03,10.0,NNW,5.8,-,N/A,,Clear,340,2013-10-29 15:53:00
9:53 AM,41.0,19.0,41,30.04,10.0,Variable,3.5,-,N/A,,Clear,0,2013-10-29 16:53:00
10:53 AM,43.0,19.0,38,30.03,10.0,Calm,Calm,-,N/A,,Clear,0,2013-10-29 17:53:00
11:53 AM,44.1,19.0,37,30.03,10.0,SSE,5.8,-,N/A,,Clear,150,2013-10-29 18:53:00
12:53 PM,45.0,19.9,37,30.02,10.0,SSW,6.9,-,N/A,,Clear,200,2013-10-29 19:53:00
1:53 PM,46.0,19.9,35,30.02,10.0,SW,8.1,-,N/A,,Clear,220,2013-10-29 20:53:00
2:53 PM,46.9,21.0,36,30.01,10.0,Variable,5.8,-,N/A,,Clear,0,2013-10-29 21:53:00
3:53 PM,46.9,21.0,36,30.01,10.0,SW,4.6,-,N/A,,Clear,220,2013-10-29 22:53:00
4:53 PM,46.0,21.0,37,30.01,10.0,Calm,Calm,-,N/A,,Clear,0,2013-10-29 23:53:00
5:53 PM,35.1,25.0,67,30.03,10.0,Calm,Calm,-,N/A,,Clear,0,2013-10-30 00:53:00
6:53 PM,30.0,21.9,72,30.06,10.0,West,3.5,-,N/A,,Clear,260,2013-10-30 01:53:00
7:53 PM,27.0,19.9,75,30.06,10.0,Calm,Calm,-,N/A,,Clear,0,2013-10-30 02:53:00
8:53 PM,25.0,19.9,81,30.05,10.0,Calm,Calm,-,N/A,,Clear,0,2013-10-30 03:53:00
9:53 PM,25.0,19.9,81,30.06,10.0,Calm,Calm,-,N/A,,Clear,0,2013-10-30 04:53:00
10:53 PM,23.0,19.0,85,30.06,10.0,Calm,Calm,-,N/A,,Clear,0,2013-10-30 05:53:00
11:53 PM,21.0,18.0,88,30.06,10.0,Calm,Calm,-,N/A,,Clear,0,2013-10-30 06:53:00